Regional Weather Roundup
Issued by NWS Wakefield, VA

Home | Current Version | Previous Version | Graphics & Text | Print | Product List | Glossary On
Versions: 1 2 3 4 5 6 7 8 9 10 11 12 13 14 15 16 17 18 19 20 21 22 23 24 25 26 27 28 29 30 31 32 33 34 35 36 37 38 39 40 41 42 43 44 45 46 47 48 49 50
000
ASUS41 KAKQ 311010
RWRAKQ

REGIONAL WEATHER ROUNDUP
NATIONAL WEATHER SERVICE WAKEFIELD VA
600 AM EDT SUN AUG 31 2014

Note: "fair" indicates few or no clouds below 12,000 feet with no
significant weather and/or obstructions to visibility. * = Denotes
station may not report precipitation (e.g., rain,snow,etc.),
thunder or fog.

VAZ042-051-052>054-056-311100-
NORTHERN VIRGINIA

CITY           SKY/WX    TMP DP  RH WIND       PRES   REMARKS
WASH NATIONAL  MOCLDY    77  72  84 S12       30.11S
DULLES         MOCLDY    72  71  97 S6        30.10S
FORT BELVOIR   PTCLDY    73  71  96 SE3       30.11S
QUANTICO       PTCLDY    76  72  87 SW8       30.12R
FREDERICKSBRG* PTCLDY    74  74 100 S6        30.11S
STAFFORD*      PTCLDY    72  72 100 CALM      30.15S FOG
WARRENTON      PTCLDY    74  74 100 S3        30.10S
CULPEPER*      PTCLDY   N/A N/A N/A CALM      30.11R HAZE
MANASSAS*      PTCLDY    73  73 100 S3        30.10S
LEESBURG*      CLOUDY    73  73 100 S5        30.10S FOG
WINCHESTER     PTCLDY    70  68  94 S5        30.09S
$$

VAZ048-049-060>072-079>083-311100-
CENTRAL AND SOUTH CENTRAL VIRGINIA...AND NORTH CENTRAL NORTH CAROLINA

CITY           SKY/WX    TMP DP  RH WIND       PRES   REMARKS
RICHMOND       PTCLDY    74  71  91 S7        30.14R
CHESTERFIELD*  SUNNY    N/A N/A N/A S5        30.15S
PETERSBURG*    CLEAR     71  70  96 S3        30.16R FOG
HANOVER        CLEAR     74  72  93 S6        30.15R
TAPPAHANNOCK*  CLEAR     73  70  90 CALM      30.14S
CHARLOTTSVILLE CLEAR     71  69  93 SW5       30.12R FOG
ORANGE*        PTCLDY    70  70 100 CALM      30.13S FOG
LOUISA*        CLEAR     72  70  94 CALM      30.12S FOG
FARMVILLE*     PTCLDY    73  72  94 SW3       30.12S
SOUTH HILL*      N/A     73  73 100 S6        30.21S
ROANOKE RAPIDS FOG       68  68 100 CALM      30.17R VSB 3/4
RALEIGH        CLOUDY    75  71  87 S3        30.17S
$$

VAZ088>098-311100-
SOUTHEAST VIRGINIA

CITY           SKY/WX    TMP DP  RH WIND       PRES   REMARKS
NORFOLK        MOCLDY    75  71  87 S6        30.16S
VIRGINIA BEACH MOCLDY    74  73  97 S6        30.16R
NORFOLK NAVAL  MOCLDY    77  72  84 S7        30.17S
WEST POINT*    PTCLDY    77  72  84 S5        30.16S
NEWPORT NEWS   MOCLDY    79  73  82 SW8       30.16R
LANGLEY AFB    MOCLDY    76  76 100 SW6       30.15S
FORT EUSTIS    MOCLDY    75 N/A N/A VRB5      30.14S
WILLIAMSBURG*  PTCLDY    77  73  88 SW3       30.16S
FRANKLIN*      PTCLDY    72  72 100 S3        30.16S
WAKEFIELD      PTCLDY    73  71  93 S3        30.16R FOG
$$

VAZ020-022-025-037-045-311100-
WESTERN AND SOUTHWEST VIRGINIA

CITY           SKY/WX    TMP DP  RH WIND       PRES   REMARKS
STAUNTON*      CLEAR     67  65  91 CALM      30.16S FOG
HOT SPRINGS VA CLOUDY    65  64  94 SW12      30.29R
LYNCHBURG      MOCLDY    68  68 100 SW3       30.17R FOG
DANVILLE       PTCLDY    71  69  93 SW3       30.17R
MARTINSVILLE   CLOUDY    68  68 100 CALM      30.20R
ROANOKE        CLOUDY    71  68  90 CALM      30.18R
BLACKSBURG     CLOUDY    70  70 100 CALM      30.23R
DUBLIN*        CLOUDY    70  70 100 S5        30.22S
MARION*        CLOUDY   N/A N/A N/A W7        30.26F
HILLSVILLE*    CLOUDY    68  65  90 S5        30.25R
RICHLANDS*     LGT RAIN  68  67  94 SE3       30.21F
WISE*          CLOUDY    64  64 100 S10       30.22R
ABINGDON*      LGT RAIN  69  69  99 E5        30.20F
$$

MDZ021>025-VAZ099-100-311100-
SOUTHERN MARYLAND AND THE DELMARVA PENINSULA

CITY           SKY/WX    TMP DP  RH WIND       PRES   REMARKS
PATUXENT RIVER PTCLDY    75  72  90 SW7       30.12S
BAY BRIDGE APT   N/A     75  73  94 S7        30.11S
LEONARDTOWN    PTCLDY    73  70  88 SW3       30.14S
DOVER          CLOUDY    74  74 100 S9        30.11S
GEORGETOWN     PTCLDY    73  71  93 S10       30.14S
EASTON         PTCLDY    76  76 100 S3        30.16S
CAMBRIDGE      PTCLDY    77  73  88 CALM      30.12S
SALISBURY      MOCLDY    76  72  87 S7        30.14S
OCEAN CITY     MOCLDY    77  74  90 SW9       30.14S
WALLOPS ISLAND PTCLDY    76  74  93 SW7       30.15S
ACCOMACK*      NOT AVBL
$$

NCZ012>017-030>032-311100-
EASTERN NORTH CAROLINA

CITY           SKY/WX    TMP DP  RH WIND       PRES   REMARKS
ELIZABETH CITY MOCLDY    72  72 100 CALM      30.17S
AHOSKIE*       PTCLDY    71  70  98 CALM      30.17S
EDENTON*       MOCLDY    75  73  96 S5        30.17S
CURRITUCK*     MOCLDY    74  72  94 CALM      30.18S FOG
KILL DEVIL HLS MOCLDY    75  74  94 CALM      30.17R
MANTEO         MOCLDY    73  72  96 CALM      30.18R
CAPE HATTERAS  PTCLDY    78  71  79 SW6       30.18R
GOLDSBORO      PTCLDY    70  69  99 CALM      30.16R
WASHINGTON     MOCLDY    70  70  98 CALM      30.17S
GREENVILLE     PTCLDY    72  72 100 CALM      30.18R
NEW BERN       PTCLDY    72  68  87 CALM      30.18R
WILMINGTON     PTCLDY    71  69  93 CALM      30.16R
$$

VAZ048-311100-
ELSEWHERE

CITY           SKY/WX    TMP DP  RH WIND       PRES   REMARKS
HARRISBURG PA  CLOUDY    74  70  87 SE5       30.07S
BALTIMORE      CLOUDY    74  72  93 S3        30.10S
ANNAPOLIS      PTCLDY    75  72  90 S6        30.10S
ANDREWS AFB    PTCLDY    72  72  99 S7        30.11S
WILMINGTON DE  CLOUDY    74  71  91 S7        30.12S
PHILADELPHIA   CLOUDY    73  68  84 SE5       30.11F
WILDWOOD NJ*   MOCLDY    73  70  88 S8        30.14S
ATLANTIC CITY  MOCLDY    74  71  91 MISG      30.13S
HENDERSON NC   MOCLDY    72  70  94 S6        30.17S FOG
GREENSBORO     MOCLDY    72  71  97 SW6       30.18R
ROCKY MOUNT    MOCLDY    70  69  97 CALM      30.17R FOG
FAYETTEVILLE   PTCLDY    73  71  93 CALM      30.16S
CHARLOTTE      LGT RAIN  74  70  87 SW3       30.20R
$$

VAZ100-311100-
MARINE

STATION/POSITION TIME  TEMP    WIND        PRES    WAVE   SWELL
                       AIR SEA DIR/SP/G            HT/PER HT/PER
                 (UTC) (F)     (DEG/KT/KT) (MB)    (FT/S) (FT/S)
44066 TX TWR #4  1000   72 72  190/  8/ 10 1021.2S   2/ 8   2/ 8
CAPE MAY NJ      1000   75 78  180/  5/  7 1019.8S
LEWES DE         1000   75 75  210/  7/  9 1020.0R
15NM E FENWICK I 1000   75 74              1020.5F   2/ 8
OCEAN-CITY-INLET 1000   76 76  220/ 10/ 12 1020.3S
WACHAPREAGUE VA  1000   76 79  230/  5/  8 1020.9S
THOMAS POINT MD  1000   76 77  190/ 14/ 15 1020.5R
GOOSES REEF MD   1000   77     220/ 10/ 14 1020.1S
COVE POINT MD    1000   76     210/  9/ 12 1019.9R
SOLOMONS ISLAND  1000      79                N/A
BISHOPS HEAD MD  1000   77 76  200/  9/ 11 1019.9R
PINEY POINT MD   1000          220/  8/ 10   N/A
POTOMAC MD       1000   77     230/ 12/ 14 1019.6R
CAMBRIDGE MD     1000   76 78  180/  4/  6 1019.7S
LEWISETTA VA     1000   75 78  220/  8/  9 1019.9S
RAPPAHANNOCK LGT 1000          200/ 12/ 13 1021.4R
STINGRAY PT      1000   77     220/ 10/ 12   N/A
YORK RVR RNG VA  1000   77     230/  9/ 10 1020.5R
YORKTOWN VA      1000   76 80  210/  5/  6 1020.6R
JAMESTOWN VA     1000   74     220/  4/  6   N/A
DOMINION TERM VA 1000   76     200/  7/  9 1021.2S
KIPTOPEKE VA     1000      81  220/  8/ 10   N/A
CHES BAY BRIDGE  1000   76 78  180/  7/  8 1020.7S
CAPE HENRY VA    1000   75     190/  5/  8 1020.1R
CHESAPEAKE LGHT  0900   77     210/ 10/ 10 1022.0R
WILLOUBY STN VA  1000   76     230/ 10/ 12 1019.9S
S CRANEY ISL VA  1000          180/  5/  7 1021.0R
CAPE HENRY BUOY  1000      78                N/A     2/ 8
1ST LANDING BUOY 1000   77     210/  8/ 10 1020.9S
CAPE CHARLES BUO 1000      78                N/A     2/ 8   2/ 8
OFFSHORE WE BUOY 1000      76                N/A     3/ 8   2/ 8
64NM E OF VA BCH 1000   77 76  180/  6/  8 1021.7R   3/ 7   2/ 7
DUCK PIER NC     1000   77 76  180/  3/  3 1021.2R
44056 DUCK FRF   1000                        N/A     2/ 8
OREGON INLET NC  1000   80 81  200/  7/  9 1021.8R
HATTERAS NC      1000   81 82  180/  2/  5 1022.3R
DIAMOND SHLS NC  1000   80     180/ 10/ 12 1021.6R   3/10   3/10
CAPE LOOKOUT NC  0900   81     160/  6/  7 1021.2S
$$


USA.gov is the U.S. government's official web portal to all federal, state and local government web resources and services.